| time (UTC) | temp C | wind direction | speed KPH | gust KPH | rain 1hr cm | rain 24hr cm | rain mn cm | humidity % | barometer mb |
| 20260508154720 | 15 | 209 | 3.2 | 9.7 | 0.00 | 0.00 | 0.00 | 51 | 1010.5 |
| 20260508154217 | 14 | 209 | 6.4 | 12.9 | 0.00 | 0.00 | 0.00 | 52 | 1010.3 |
| 20260508153714 | 14 | 205 | 6.4 | 12.9 | 0.00 | 0.00 | 0.00 | 52 | 1010.5 |
| 20260508153211 | 13 | 191 | 8.0 | 14.5 | 0.00 | 0.00 | 0.00 | 54 | 1010.5 |
| 20260508152708 | 13 | 210 | 6.4 | 9.7 | 0.00 | 0.00 | 0.00 | 55 | 1010.3 |
| 20260508152203 | 13 | 195 | 4.8 | 6.4 | 0.00 | 0.00 | 0.00 | 56 | 1010.3 |
| 20260508151700 | 12 | 195 | 3.2 | 8.0 | 0.00 | 0.00 | 0.00 | 57 | 1010.6 |
| 20260508151157 | 12 | 189 | 9.7 | 9.7 | 0.00 | 0.00 | 0.00 | 56 | 1010.8 |
| 20260508150653 | 12 | 162 | 6.4 | 11.3 | 0.00 | 0.00 | 0.00 | 57 | 1010.6 |
| 20260508150150 | 12 | 229 | 8.0 | 16.1 | 0.00 | 0.00 | 0.00 | 56 | 1010.5 |
| 20260508145646 | 12 | 195 | 8.0 | 9.7 | 0.00 | 0.00 | 0.00 | 57 | 1010.7 |
| 20260508145142 | 12 | 192 | 6.4 | 16.1 | 0.00 | 0.00 | 0.00 | 56 | 1010.8 |
| 20260508144640 | 12 | 196 | 6.4 | 11.3 | 0.00 | 0.00 | 0.00 | 56 | 1010.6 |
| 20260508144138 | 12 | 201 | 3.2 | 12.9 | 0.00 | 0.00 | 0.00 | 56 | 1010.8 |
| 20260508143635 | 11 | 170 | 3.2 | 8.0 | 0.00 | 0.00 | 0.00 | 57 | 1010.7 |
| 20260508143132 | 11 | 207 | 8.0 | 9.7 | 0.00 | 0.00 | 0.00 | 56 | 1010.9 |
| 20260508142628 | 11 | 194 | 8.0 | 14.5 | 0.00 | 0.00 | 0.00 | 57 | 1010.8 |
| 20260508142125 | 11 | 219 | 9.7 | 12.9 | 0.00 | 0.00 | 0.00 | 57 | 1011.0 |
| 20260508141621 | 11 | 214 | 3.2 | 11.3 | 0.00 | 0.00 | 0.00 | 57 | 1010.9 |
| 20260508141119 | 11 | 191 | 3.2 | 8.0 | 0.00 | 0.00 | 0.00 | 57 | 1010.8 |
| 20260508140616 | 11 | 189 | 3.2 | 14.5 | 0.00 | 0.00 | 0.00 | 57 | 1010.7 |
| 20260508140113 | 11 | 164 | 1.6 | 11.3 | 0.00 | 0.00 | 0.00 | 58 | 1010.6 |
| 20260508135608 | 11 | 213 | 6.4 | 11.3 | 0.00 | 0.00 | 0.00 | 57 | 1010.8 |
| 20260508135105 | 11 | 228 | 9.7 | 11.3 | 0.00 | 0.00 | 0.00 | 59 | 1010.7 |
| 20260508134602 | 11 | 208 | 9.7 | 9.7 | 0.00 | 0.00 | 0.00 | 59 | 1010.8 |
| 20260508134059 | 11 | 204 | 4.8 | 9.7 | 0.00 | 0.00 | 0.00 | 59 | 1010.8 |
| 20260508133555 | 11 | 181 | 6.4 | 8.0 | 0.00 | 0.00 | 0.00 | 59 | 1010.7 |
| 20260508133053 | 11 | 195 | 6.4 | 9.7 | 0.00 | 0.00 | 0.00 | 59 | 1010.6 |
| 20260508132550 | 11 | 207 | 4.8 | 8.0 | 0.00 | 0.00 | 0.00 | 59 | 1010.6 |
| 20260508132047 | 11 | 204 | 4.8 | 14.5 | 0.00 | 0.00 | 0.00 | 60 | 1010.7 |
| 20260508131542 | 11 | 178 | 6.4 | 11.3 | 0.00 | 0.00 | 0.00 | 59 | 1010.8 |
| 20260508131039 | 11 | 173 | 6.4 | 8.0 | 0.00 | 0.00 | 0.00 | 60 | 1010.6 |
| 20260508130536 | 11 | 158 | 4.8 | 8.0 | 0.00 | 0.00 | 0.00 | 60 | 1010.7 |
| 20260508130033 | 11 | 194 | 4.8 | 8.0 | 0.00 | 0.00 | 0.00 | 60 | 1010.6 |
| 20260508125528 | 11 | 200 | 8.0 | 14.5 | 0.00 | 0.00 | 0.00 | 59 | 1010.5 |
| 20260508125026 | 11 | 194 | 3.2 | 17.7 | 0.00 | 0.00 | 0.00 | 59 | 1010.7 |
| 20260508124524 | 11 | 168 | 1.6 | 9.7 | 0.00 | 0.00 | 0.00 | 61 | 1010.7 |
| 20260508124021 | 10 | 177 | 3.2 | 9.7 | 0.00 | 0.00 | 0.00 | 61 | 1010.7 |
| 20260508123519 | 10 | 180 | 4.8 | 9.7 | 0.00 | 0.00 | 0.00 | 61 | 1010.7 |
| 20260508123016 | 10 | 195 | 3.2 | 8.0 | 0.00 | 0.00 | 0.00 | 61 | 1010.5 |
| 20260508122513 | 10 | 198 | 8.0 | 9.7 | 0.00 | 0.00 | 0.00 | 62 | 1010.6 |
| 20260508122010 | 10 | 158 | 6.4 | 8.0 | 0.00 | 0.00 | 0.00 | 63 | 1010.7 |
| 20260508121508 | 10 | 180 | 3.2 | 8.0 | 0.00 | 0.00 | 0.00 | 63 | 1010.5 |
| 20260508121006 | 10 | 167 | 6.4 | 6.4 | 0.00 | 0.00 | 0.00 | 63 | 1010.4 |
| 20260508120503 | 10 | 170 | 8.0 | 11.3 | 0.00 | 0.00 | 0.00 | 63 | 1010.5 |
| 20260508120001 | 9 | 173 | 6.4 | 8.0 | 0.00 | 0.00 | 0.00 | 64 | 1010.5 |
| 20260508115458 | 9 | 170 | 6.4 | 6.4 | 0.00 | 0.00 | 0.00 | 64 | 1010.6 |
| 20260508114955 | 9 | 196 | 4.8 | 8.0 | 0.00 | 0.00 | 0.00 | 64 | 1010.4 |
| 20260508114452 | 10 | 173 | 3.2 | 9.7 | 0.00 | 0.00 | 0.00 | 63 | 1010.6 |
| 20260508113948 | 9 | 202 | 6.4 | 8.0 | 0.00 | 0.00 | 0.00 | 65 | 1010.3 |
| 20260508113446 | 8 | 158 | 4.8 | 8.0 | 0.00 | 0.00 | 0.00 | 66 | 1010.4 |
| 20260508112943 | 8 | 192 | 6.4 | 6.4 | 0.00 | 0.00 | 0.00 | 66 | 1010.2 |
| 20260508112439 | 8 | 174 | 6.4 | 9.7 | 0.00 | 0.00 | 0.00 | 67 | 1010.4 |
| 20260508111936 | 8 | 162 | 4.8 | 8.0 | 0.00 | 0.00 | 0.00 | 67 | 1010.4 |
| 20260508111433 | 8 | 136 | 6.4 | 8.0 | 0.00 | 0.00 | 0.00 | 68 | 1010.3 |
| 20260508110930 | 7 | 170 | 3.2 | 4.8 | 0.00 | 0.00 | 0.00 | 69 | 1010.3 |
| 20260508110428 | 7 | 174 | 3.2 | 4.8 | 0.00 | 0.00 | 0.00 | 69 | 1010.2 |
| 20260508105927 | 7 | 174 | 3.2 | 4.8 | 0.00 | 0.00 | 0.00 | 69 | 1010.2 |
| 20260508105424 | 7 | 136 | 3.2 | 6.4 | 0.00 | 0.00 | 0.00 | 69 | 1010.2 |
| 20260508104921 | 7 | 169 | 3.2 | 4.8 | 0.00 | 0.00 | 0.00 | 69 | 1010.2 |
| 20260508104419 | 7 | 167 | 3.2 | 6.4 | 0.00 | 0.00 | 0.00 | 69 | 1010.0 |
| 20260508103915 | 7 | 145 | 4.8 | 8.0 | 0.00 | 0.00 | 0.00 | 69 | 1010.0 |
| 20260508103412 | 7 | 162 | 3.2 | 6.4 | 0.00 | 0.00 | 0.00 | 69 | 1010.2 |
| 20260508102909 | 7 | 190 | 4.8 | 8.0 | 0.00 | 0.00 | 0.00 | 70 | 1009.7 |
| 20260508102408 | 7 | 170 | 4.8 | 6.4 | 0.00 | 0.00 | 0.00 | 70 | 1009.8 |
| 20260508101905 | 7 | 154 | 3.2 | 6.4 | 0.00 | 0.00 | 0.00 | 71 | 1009.9 |
| 20260508101402 | 6 | 161 | 3.2 | 6.4 | 0.00 | 0.00 | 0.00 | 72 | 1009.8 |
| 20260508100859 | 6 | 148 | 8.0 | 8.0 | 0.00 | 0.00 | 0.00 | 73 | 1009.7 |
| 20260508100358 | 6 | 137 | 4.8 | 6.4 | 0.00 | 0.00 | 0.00 | 74 | 1009.7 |
| 20260508095853 | 6 | 150 | 4.8 | 6.4 | 0.00 | 0.00 | 0.00 | 75 | 1009.6 |
| 20260508095351 | 5 | 154 | 4.8 | 6.4 | 0.00 | 0.00 | 0.00 | 79 | 1009.7 |
| 20260508094848 | 5 | 148 | 4.8 | 6.4 | 0.00 | 0.00 | 0.00 | 82 | 1009.9 |
| 20260508094345 | 5 | 138 | 4.8 | 6.4 | 0.00 | 0.00 | 0.00 | 82 | 1009.8 |
| 20260508093842 | 5 | 133 | 4.8 | 4.8 | 0.00 | 0.00 | 0.00 | 80 | 1009.9 |
| 20260508093339 | 6 | 123 | 6.4 | 6.4 | 0.00 | 0.00 | 0.00 | 77 | 1009.9 |
| 20260508092836 | 6 | 128 | 4.8 | 6.4 | 0.00 | 0.00 | 0.00 | 76 | 1009.8 |
| 20260508092334 | 6 | 101 | 3.2 | 6.4 | 0.00 | 0.00 | 0.00 | 74 | 1009.9 |
| 20260508091832 | 6 | 119 | 4.8 | 6.4 | 0.00 | 0.00 | 0.00 | 73 | 1010.0 |
| 20260508091328 | 6 | 150 | 3.2 | 6.4 | 0.00 | 0.00 | 0.00 | 75 | 1010.1 |
| 20260508090826 | 6 | 147 | 4.8 | 6.4 | 0.00 | 0.00 | 0.00 | 76 | 1009.8 |
| 20260508090325 | 6 | 149 | 6.4 | 8.0 | 0.00 | 0.00 | 0.00 | 76 | 1010.0 |
| 20260508085820 | 6 | 144 | 6.4 | 6.4 | 0.00 | 0.00 | 0.00 | 75 | 1010.0 |
| 20260508085317 | 6 | 158 | 4.8 | 8.0 | 0.00 | 0.00 | 0.00 | 76 | 1010.0 |
| 20260508084814 | 6 | 148 | 6.4 | 8.0 | 0.00 | 0.00 | 0.00 | 77 | 1010.0 |
| 20260508084311 | 6 | 142 | 4.8 | 8.0 | 0.00 | 0.00 | 0.00 | 80 | 1010.0 |
| 20260508083808 | 6 | 152 | 6.4 | 8.0 | 0.00 | 0.00 | 0.00 | 83 | 1010.0 |
| 20260508083306 | 6 | 133 | 6.4 | 8.0 | 0.00 | 0.00 | 0.00 | 84 | 1009.9 |
| 20260508082805 | 6 | 145 | 6.4 | 8.0 | 0.00 | 0.00 | 0.00 | 84 | 1010.1 |
| 20260508082306 | 6 | 135 | 6.4 | 8.0 | 0.00 | 0.00 | 0.00 | 83 | 1010.1 |
| 20260508081800 | 6 | 144 | 6.4 | 6.4 | 0.00 | 0.00 | 0.00 | 83 | 1009.9 |
| 20260508081257 | 6 | 151 | 4.8 | 6.4 | 0.00 | 0.00 | 0.00 | 82 | 1010.0 |
| 20260508080754 | 6 | 143 | 6.4 | 6.4 | 0.00 | 0.00 | 0.00 | 83 | 1009.8 |
| 20260508080252 | 6 | 139 | 4.8 | 4.8 | 0.00 | 0.00 | 0.00 | 81 | 1010.2 |
| 20260508075748 | 7 | 115 | 3.2 | 6.4 | 0.00 | 0.00 | 0.00 | 79 | 1010.1 |
| 20260508075245 | 7 | 127 | 4.8 | 6.4 | 0.00 | 0.00 | 0.00 | 79 | 1010.1 |
| 20260508074743 | 7 | 140 | 6.4 | 8.0 | 0.00 | 0.00 | 0.00 | 78 | 1010.1 |
| 20260508074240 | 7 | 146 | 6.4 | 8.0 | 0.00 | 0.00 | 0.00 | 77 | 1010.0 |
| 20260508073737 | 8 | 130 | 4.8 | 6.4 | 0.00 | 0.00 | 0.00 | 76 | 1010.0 |
| 20260508073235 | 8 | 149 | 4.8 | 6.4 | 0.00 | 0.00 | 0.00 | 76 | 1010.2 |
| 20260508072731 | 8 | 144 | 6.4 | 8.0 | 0.00 | 0.00 | 0.00 | 75 | 1010.2 |
| 20260508072228 | 8 | 144 | 4.8 | 6.4 | 0.00 | 0.00 | 0.00 | 74 | 1010.2 |
| 20260508071725 | 8 | 144 | 4.8 | 6.4 | 0.00 | 0.00 | 0.00 | 74 | 1010.1 |
| 20260508071223 | 8 | 157 | 6.4 | 8.0 | 0.00 | 0.00 | 0.00 | 74 | 1010.2 |
| 20260508070720 | 8 | 149 | 9.7 | 9.7 | 0.00 | 0.00 | 0.00 | 75 | 1010.4 |
| 20260508070219 | 8 | 160 | 6.4 | 8.0 | 0.00 | 0.00 | 0.00 | 75 | 1010.4 |
| 20260508065716 | 8 | 139 | 8.0 | 8.0 | 0.00 | 0.00 | 0.00 | 76 | 1010.4 |
| 20260508065214 | 8 | 160 | 6.4 | 8.0 | 0.00 | 0.00 | 0.00 | 75 | 1010.5 |
| 20260508064711 | 8 | 140 | 3.2 | 6.4 | 0.00 | 0.00 | 0.00 | 74 | 1010.6 |
| 20260508064209 | 8 | 125 | 3.2 | 6.4 | 0.00 | 0.00 | 0.00 | 73 | 1010.5 |
| 20260508063706 | 9 | 146 | 6.4 | 6.4 | 0.00 | 0.00 | 0.00 | 71 | 1010.5 |
| 20260508063204 | 9 | 151 | 6.4 | 8.0 | 0.00 | 0.00 | 0.00 | 72 | 1010.7 |
| 20260508062701 | 8 | 152 | 4.8 | 6.4 | 0.00 | 0.00 | 0.00 | 71 | 1010.6 |
| 20260508062158 | 9 | 130 | 4.8 | 4.8 | 0.00 | 0.00 | 0.00 | 71 | 1011.0 |
| 20260508061655 | 9 | 125 | 3.2 | 4.8 | 0.00 | 0.00 | 0.00 | 70 | 1010.7 |
| 20260508061153 | 9 | 95 | 3.2 | 4.8 | 0.00 | 0.00 | 0.00 | 68 | 1011.3 |
| 20260508060649 | 9 | 123 | 3.2 | 4.8 | 0.00 | 0.00 | 0.00 | 70 | 1011.2 |
| 20260508060147 | 9 | 92 | 3.2 | 6.4 | 0.00 | 0.00 | 0.00 | 66 | 1011.2 |
| 20260508055642 | 9 | 35 | 6.4 | 6.4 | 0.00 | 0.00 | 0.00 | 67 | 1011.5 |
| 20260508055139 | 9 | 74 | 4.8 | 4.8 | 0.00 | 0.00 | 0.00 | 68 | 1011.3 |
| 20260508054635 | 9 | 122 | 3.2 | 6.4 | 0.00 | 0.00 | 0.00 | 68 | 1011.4 |
| 20260508054133 | 9 | 59 | 1.6 | 3.2 | 0.00 | 0.00 | 0.00 | 68 | 1011.1 |
| 20260508053630 | 9 | 103 | 3.2 | 6.4 | 0.00 | 0.00 | 0.00 | 69 | 1010.8 |
| 20260508053128 | 8 | 142 | 3.2 | 4.8 | 0.00 | 0.00 | 0.00 | 68 | 1010.8 |
| 20260508052625 | 8 | 145 | 4.8 | 6.4 | 0.00 | 0.00 | 0.00 | 72 | 1010.6 |
| 20260508052122 | 8 | 148 | 6.4 | 6.4 | 0.00 | 0.00 | 0.00 | 74 | 1010.6 |
| 20260508051618 | 8 | 146 | 6.4 | 6.4 | 0.00 | 0.00 | 0.00 | 75 | 1010.6 |
| 20260508051113 | 8 | 135 | 4.8 | 6.4 | 0.00 | 0.00 | 0.00 | 72 | 1010.5 |
| 20260508050610 | 8 | 107 | 3.2 | 3.2 | 0.00 | 0.00 | 0.00 | 73 | 1010.8 |
| 20260508050108 | 8 | 123 | 4.8 | 4.8 | 0.00 | 0.00 | 0.00 | 72 | 1010.4 |
| 20260508045603 | 8 | 129 | 4.8 | 6.4 | 0.00 | 0.00 | 0.00 | 71 | 1010.6 |
| 20260508045101 | 8 | 126 | 4.8 | 6.4 | 0.00 | 0.00 | 0.00 | 72 | 1010.8 |
| 20260508044558 | 8 | 129 | 3.2 | 4.8 | 0.00 | 0.00 | 0.00 | 73 | 1010.6 |
| 20260508044054 | 8 | 135 | 6.4 | 6.4 | 0.00 | 0.00 | 0.00 | 73 | 1010.7 |
| 20260508043551 | 8 | 146 | 6.4 | 6.4 | 0.00 | 0.00 | 0.00 | 75 | 1010.7 |
| 20260508043049 | 8 | 130 | 3.2 | 4.8 | 0.00 | 0.00 | 0.00 | 77 | 1010.7 |
| 20260508042545 | 8 | 128 | 3.2 | 4.8 | 0.00 | 0.00 | 0.00 | 77 | 1010.7 |
| 20260508042042 | 8 | 145 | 4.8 | 6.4 | 0.00 | 0.00 | 0.00 | 77 | 1010.8 |
| 20260508041538 | 8 | 135 | 4.8 | 4.8 | 0.00 | 0.00 | 0.00 | 76 | 1010.8 |
| 20260508041035 | 8 | 113 | 3.2 | 4.8 | 0.00 | 0.00 | 0.00 | 75 | 1010.9 |
| 20260508040532 | 8 | 119 | 3.2 | 4.8 | 0.00 | 0.00 | 0.00 | 74 | 1010.9 |
| 20260508040030 | 8 | 145 | 4.8 | 6.4 | 0.00 | 0.00 | 0.00 | 74 | 1010.8 |
| 20260508035526 | 8 | 136 | 4.8 | 4.8 | 0.00 | 0.00 | 0.00 | 71 | 1010.8 |
| 20260508035024 | 8 | 129 | 3.2 | 4.8 | 0.00 | 0.00 | 0.00 | 72 | 1010.7 |
| 20260508034521 | 8 | 109 | 3.2 | 6.4 | 0.00 | 0.00 | 0.00 | 71 | 1010.7 |
| 20260508034017 | 8 | 124 | 4.8 | 4.8 | 0.00 | 0.00 | 0.00 | 70 | 1010.8 |
| 20260508033515 | 8 | 132 | 4.8 | 6.4 | 0.00 | 0.00 | 0.00 | 70 | 1010.9 |
| 20260508033013 | 8 | 86 | 3.2 | 3.2 | 0.00 | 0.00 | 0.00 | 71 | 1010.7 |
| 20260508032510 | 8 | 141 | 6.4 | 6.4 | 0.00 | 0.00 | 0.00 | 71 | 1010.7 |
| 20260508032007 | 8 | 71 | 1.6 | 3.2 | 0.00 | 0.00 | 0.00 | 70 | 1010.7 |
| 20260508031505 | 8 | 127 | 6.4 | 6.4 | 0.00 | 0.00 | 0.00 | 71 | 1010.9 |
| 20260508030959 | 8 | 108 | 3.2 | 3.2 | 0.00 | 0.00 | 0.00 | 73 | 1010.9 |
| 20260508030457 | 8 | 110 | 1.6 | 3.2 | 0.00 | 0.00 | 0.00 | 72 | 1010.8 |
| 20260508025954 | 7 | 116 | 3.2 | 3.2 | 0.00 | 0.00 | 0.00 | 74 | 1010.8 |
| 20260508025450 | 7 | 120 | 4.8 | 6.4 | 0.00 | 0.00 | 0.00 | 73 | 1010.7 |
| 20260508024948 | 7 | 136 | 4.8 | 6.4 | 0.00 | 0.00 | 0.00 | 72 | 1010.8 |
| 20260508024443 | 7 | 127 | 3.2 | 4.8 | 0.00 | 0.00 | 0.00 | 72 | 1010.8 |
| 20260508023941 | 7 | 119 | 4.8 | 4.8 | 0.00 | 0.00 | 0.00 | 72 | 1010.6 |
| 20260508023437 | 7 | 124 | 4.8 | 4.8 | 0.00 | 0.00 | 0.00 | 73 | 1010.7 |
| 20260508022935 | 7 | 115 | 4.8 | 4.8 | 0.00 | 0.00 | 0.00 | 74 | 1010.7 |
| 20260508022430 | 7 | 130 | 4.8 | 6.4 | 0.00 | 0.00 | 0.00 | 72 | 1010.6 |
| 20260508021927 | 8 | 129 | 4.8 | 6.4 | 0.00 | 0.00 | 0.00 | 70 | 1010.7 |
| 20260508021423 | 8 | 121 | 4.8 | 4.8 | 0.00 | 0.00 | 0.00 | 69 | 1010.5 |
| 20260508020919 | 8 | 122 | 3.2 | 4.8 | 0.00 | 0.00 | 0.00 | 68 | 1010.7 |
| 20260508020418 | 8 | 129 | 6.4 | 6.4 | 0.00 | 0.00 | 0.00 | 70 | 1010.6 |
| 20260508015914 | 8 | 122 | 4.8 | 6.4 | 0.00 | 0.00 | 0.00 | 74 | 1010.8 |
| 20260508015412 | 8 | 127 | 4.8 | 4.8 | 0.00 | 0.00 | 0.00 | 74 | 1010.8 |
| 20260508014908 | 8 | 126 | 4.8 | 6.4 | 0.00 | 0.00 | 0.00 | 74 | 1010.7 |
| 20260508014406 | 8 | 126 | 4.8 | 6.4 | 0.00 | 0.00 | 0.00 | 73 | 1010.7 |
| 20260508013902 | 8 | 125 | 4.8 | 4.8 | 0.00 | 0.00 | 0.00 | 71 | 1010.6 |
| 20260508013357 | 8 | 124 | 4.8 | 4.8 | 0.00 | 0.00 | 0.00 | 70 | 1010.5 |
| 20260508012855 | 8 | 138 | 4.8 | 4.8 | 0.00 | 0.00 | 0.00 | 67 | 1010.6 |
| 20260508012352 | 8 | 135 | 4.8 | 4.8 | 0.00 | 0.00 | 0.00 | 65 | 1010.5 |
| 20260508011849 | 8 | 118 | 3.2 | 4.8 | 0.00 | 0.00 | 0.00 | 62 | 1010.5 |
| 20260508011347 | 8 | 136 | 4.8 | 6.4 | 0.00 | 0.00 | 0.00 | 60 | 1010.4 |
| 20260508010844 | 9 | 127 | 3.2 | 4.8 | 0.00 | 0.00 | 0.00 | 58 | 1010.5 |
| 20260508010341 | 10 | 130 | 3.2 | 4.8 | 0.00 | 0.00 | 0.00 | 56 | 1010.5 |
| 20260508005839 | 10 | 129 | 3.2 | 4.8 | 0.00 | 0.00 | 0.00 | 57 | 1010.6 |
| 20260508005335 | 10 | 125 | 3.2 | 4.8 | 0.00 | 0.00 | 0.00 | 55 | 1010.5 |
| 20260508004831 | 10 | 115 | 3.2 | 4.8 | 0.00 | 0.00 | 0.00 | 54 | 1010.5 |
| 20260508004328 | 10 | 127 | 4.8 | 4.8 | 0.00 | 0.00 | 0.00 | 52 | 1010.4 |
| 20260508003824 | 10 | 133 | 3.2 | 4.8 | 0.00 | 0.00 | 0.00 | 51 | 1010.4 |
| 20260508003322 | 10 | 124 | 3.2 | 4.8 | 0.00 | 0.00 | 0.00 | 49 | 1010.5 |
| 20260508002819 | 11 | 137 | 3.2 | 4.8 | 0.00 | 0.00 | 0.00 | 47 | 1010.2 |
| 20260508002315 | 11 | 131 | 3.2 | 4.8 | 0.00 | 0.00 | 0.00 | 47 | 1010.2 |
| 20260508001811 | 11 | 122 | 3.2 | 4.8 | 0.00 | 0.00 | 0.00 | 44 | 1010.2 |
| 20260508001307 | 12 | 112 | 3.2 | 3.2 | 0.00 | 0.00 | 0.00 | 42 | 1010.1 |
| 20260508000803 | 12 | 106 | 3.2 | 3.2 | 0.00 | 0.00 | 0.00 | 42 | 1010.1 |
| 20260508000300 | 12 | 143 | 1.6 | 3.2 | 0.00 | 0.00 | 0.00 | 40 | 1010.0 |
| 20260507235757 | 12 | 130 | 0.0 | 3.2 | 0.00 | 0.00 | 0.00 | 40 | 1010.1 |
| 20260507235254 | 12 | 120 | 1.6 | 3.2 | 0.00 | 0.00 | 0.00 | 41 | 1010.0 |
| 20260507234751 | 12 | 70 | 1.6 | 4.8 | 0.00 | 0.00 | 0.00 | 40 | 1010.0 |
| 20260507234248 | 13 | 149 | 1.6 | 4.8 | 0.00 | 0.00 | 0.00 | 40 | 1009.9 |
| 20260507233744 | 13 | 177 | 1.6 | 3.2 | 0.00 | 0.00 | 0.00 | 37 | 1009.9 |
| 20260507233242 | 14 | 193 | 3.2 | 6.4 | 0.00 | 0.00 | 0.00 | 38 | 1009.9 |
| 20260507232739 | 14 | 120 | 3.2 | 6.4 | 0.00 | 0.00 | 0.00 | 37 | 1009.7 |
| 20260507232236 | 15 | 5 | 3.2 | 8.0 | 0.00 | 0.00 | 0.00 | 35 | 1010.0 |
| 20260507231733 | 14 | 144 | 0.0 | 4.8 | 0.00 | 0.00 | 0.00 | 36 | 1010.0 |
| 20260507231230 | 14 | 246 | 1.6 | 8.0 | 0.00 | 0.00 | 0.00 | 35 | 1010.0 |
| 20260507230726 | 15 | 330 | 4.8 | 11.3 | 0.00 | 0.00 | 0.00 | 35 | 1009.9 |
| 20260507230224 | 15 | 211 | 3.2 | 9.7 | 0.00 | 0.00 | 0.00 | 35 | 1010.0 |
| 20260507225723 | 15 | 23 | 0.0 | 6.4 | 0.00 | 0.00 | 0.00 | 34 | 1010.0 |
| 20260507225220 | 15 | 230 | 3.2 | 8.0 | 0.00 | 0.00 | 0.00 | 35 | 1010.0 |
| 20260507224715 | 15 | 341 | 3.2 | 6.4 | 0.00 | 0.00 | 0.00 | 36 | 1010.2 |
| 20260507224212 | 15 | 27 | 0.0 | 6.4 | 0.00 | 0.00 | 0.00 | 35 | 1010.1 |
| 20260507223708 | 14 | 323 | 3.2 | 8.0 | 0.00 | 0.00 | 0.00 | 36 | 1010.1 |
| 20260507223206 | 15 | 340 | 11.3 | 11.3 | 0.00 | 0.00 | 0.00 | 35 | 1010.1 |
| 20260507222702 | 15 | 291 | 4.8 | 12.9 | 0.00 | 0.00 | 0.00 | 34 | 1010.3 |
| 20260507222159 | 14 | 171 | 4.8 | 6.4 | 0.00 | 0.00 | 0.00 | 38 | 1010.3 |
| 20260507221655 | 14 | 50 | 4.8 | 6.4 | 0.00 | 0.00 | 0.00 | 38 | 1010.2 |
| 20260507221151 | 14 | 330 | 3.2 | 6.4 | 0.00 | 0.00 | 0.00 | 37 | 1010.3 |
| 20260507220649 | 14 | 199 | 3.2 | 9.7 | 0.00 | 0.00 | 0.00 | 37 | 1010.4 |
| 20260507220147 | 15 | 333 | 6.4 | 8.0 | 0.00 | 0.00 | 0.00 | 35 | 1010.3 |
| 20260507215642 | 15 | 356 | 12.9 | 19.3 | 0.00 | 0.00 | 0.00 | 34 | 1010.3 |
| 20260507215140 | 15 | 356 | 9.7 | 9.7 | 0.00 | 0.00 | 0.00 | 34 | 1010.3 |
| 20260507214637 | 15 | 13 | 6.4 | 14.5 | 0.00 | 0.00 | 0.00 | 34 | 1010.2 |
| 20260507214134 | 15 | 336 | 3.2 | 9.7 | 0.00 | 0.00 | 0.00 | 35 | 1010.1 |
| 20260507213630 | 15 | 30 | 3.2 | 12.9 | 0.00 | 0.00 | 0.00 | 35 | 1010.1 |
| 20260507213127 | 15 | 44 | 4.8 | 6.4 | 0.00 | 0.00 | 0.00 | 38 | 1010.0 |
| 20260507212623 | 14 | 3 | 4.8 | 17.7 | 0.00 | 0.00 | 0.00 | 36 | 1010.1 |
| 20260507212120 | 14 | 353 | 0.0 | 8.0 | 0.00 | 0.00 | 0.00 | 38 | 1010.0 |
| 20260507211617 | 14 | 64 | 1.6 | 8.0 | 0.00 | 0.00 | 0.00 | 36 | 1009.8 |
| 20260507211112 | 15 | 358 | 4.8 | 9.7 | 0.00 | 0.00 | 0.00 | 36 | 1009.9 |
| 20260507210610 | 15 | 127 | 4.8 | 11.3 | 0.00 | 0.00 | 0.00 | 37 | 1009.9 |
| 20260507210107 | 15 | 344 | 11.3 | 14.5 | 0.00 | 0.00 | 0.00 | 35 | 1009.8 |
| 20260507205603 | 15 | 330 | 11.3 | 12.9 | 0.00 | 0.00 | 0.00 | 34 | 1010.0 |
| 20260507205100 | 14 | 124 | 3.2 | 6.4 | 0.00 | 0.00 | 0.00 | 38 | 1009.9 |
| 20260507204556 | 15 | 332 | 6.4 | 8.0 | 0.00 | 0.00 | 0.00 | 38 | 1010.1 |
| 20260507204054 | 15 | 159 | 4.8 | 9.7 | 0.00 | 0.00 | 0.00 | 39 | 1010.1 |
| 20260507203551 | 15 | 248 | 16.1 | 19.3 | 0.00 | 0.00 | 0.00 | 36 | 1009.9 |
| 20260507203049 | 14 | 215 | 4.8 | 16.1 | 0.00 | 0.00 | 0.00 | 39 | 1009.9 |
| 20260507202544 | 14 | 45 | 3.2 | 12.9 | 0.00 | 0.00 | 0.00 | 41 | 1009.9 |
| 20260507202040 | 14 | 72 | 6.4 | 14.5 | 0.00 | 0.00 | 0.00 | 39 | 1009.9 |
| 20260507201536 | 13 | 45 | 3.2 | 16.1 | 0.00 | 0.00 | 0.00 | 40 | 1010.0 |
| 20260507201033 | 14 | 2 | 9.7 | 16.1 | 0.00 | 0.00 | 0.00 | 38 | 1010.2 |
| 20260507200528 | 14 | 343 | 9.7 | 12.9 | 0.00 | 0.00 | 0.00 | 39 | 1010.2 |
| 20260507200025 | 13 | 255 | 3.2 | 11.3 | 0.00 | 0.00 | 0.00 | 40 | 1010.0 |
| 20260507195522 | 13 | 330 | 11.3 | 12.9 | 0.00 | 0.00 | 0.00 | 39 | 1010.0 |
| 20260507195020 | 13 | 321 | 9.7 | 11.3 | 0.00 | 0.00 | 0.00 | 38 | 1010.2 |
| 20260507194516 | 13 | 16 | 6.4 | 8.0 | 0.00 | 0.00 | 0.00 | 40 | 1010.1 |
| 20260507194012 | 14 | 190 | 4.8 | 9.7 | 0.00 | 0.00 | 0.00 | 43 | 1010.1 |
| 20260507193509 | 13 | 342 | 3.2 | 16.1 | 0.00 | 0.00 | 0.00 | 41 | 1010.3 |
| 20260507193006 | 13 | 341 | 4.8 | 14.5 | 0.00 | 0.00 | 0.00 | 41 | 1010.4 |
| 20260507192502 | 14 | 329 | 4.8 | 24.1 | 0.00 | 0.00 | 0.00 | 41 | 1010.1 |
| 20260507191959 | 13 | 0 | 6.4 | 16.1 | 0.00 | 0.00 | 0.00 | 40 | 1010.2 |
| 20260507191454 | 13 | 349 | 11.3 | 17.7 | 0.00 | 0.00 | 0.00 | 38 | 1010.1 |
| 20260507190951 | 13 | 9 | 6.4 | 12.9 | 0.00 | 0.00 | 0.00 | 41 | 1010.2 |
| 20260507190449 | 13 | 331 | 6.4 | 14.5 | 0.00 | 0.00 | 0.00 | 39 | 1010.1 |
| 20260507185948 | 13 | 319 | 6.4 | 17.7 | 0.00 | 0.00 | 0.00 | 42 | 1010.4 |
| 20260507185445 | 13 | 311 | 4.8 | 16.1 | 0.00 | 0.00 | 0.00 | 39 | 1010.3 |
| 20260507184941 | 13 | 356 | 6.4 | 17.7 | 0.00 | 0.00 | 0.00 | 42 | 1010.2 |
| 20260507184439 | 13 | 19 | 4.8 | 11.3 | 0.00 | 0.00 | 0.00 | 45 | 1010.3 |
| 20260507183937 | 13 | 344 | 6.4 | 17.7 | 0.00 | 0.00 | 0.00 | 45 | 1010.2 |
| 20260507183434 | 13 | 0 | 4.8 | 14.5 | 0.00 | 0.00 | 0.00 | 45 | 1010.4 |
| 20260507182931 | 13 | 294 | 3.2 | 16.1 | 0.00 | 0.00 | 0.00 | 45 | 1010.3 |
| 20260507182427 | 13 | 40 | 3.2 | 12.9 | 0.00 | 0.00 | 0.00 | 47 | 1010.4 |
| 20260507181923 | 13 | 66 | 6.4 | 19.3 | 0.00 | 0.00 | 0.00 | 45 | 1010.3 |
| 20260507181419 | 13 | 313 | 3.2 | 17.7 | 0.00 | 0.00 | 0.00 | 45 | 1010.4 |
| 20260507180916 | 13 | 338 | 4.8 | 12.9 | 0.00 | 0.00 | 0.00 | 45 | 1010.3 |
| 20260507180413 | 13 | 235 | 3.2 | 9.7 | 0.00 | 0.00 | 0.00 | 45 | 1010.3 |
| 20260507175908 | 13 | 77 | 3.2 | 8.0 | 0.00 | 0.00 | 0.00 | 52 | 1010.3 |
| 20260507175405 | 13 | 180 | 3.2 | 8.0 | 0.00 | 0.00 | 0.00 | 45 | 1010.4 |
| 20260507174903 | 13 | 11 | 6.4 | 16.1 | 0.00 | 0.00 | 0.00 | 45 | 1010.4 |
| 20260507174400 | 13 | 312 | 6.4 | 8.0 | 0.00 | 0.00 | 0.00 | 47 | 1010.4 |
| 20260507173858 | 13 | 219 | 3.2 | 11.3 | 0.00 | 0.00 | 0.00 | 47 | 1010.7 |
| 20260507173355 | 13 | 332 | 4.8 | 24.1 | 0.00 | 0.00 | 0.00 | 44 | 1010.5 |
| 20260507172851 | 13 | 231 | 8.0 | 12.9 | 0.00 | 0.00 | 0.00 | 44 | 1010.6 |
| 20260507172348 | 13 | 30 | 8.0 | 9.7 | 0.00 | 0.00 | 0.00 | 42 | 1010.5 |
| 20260507171844 | 13 | 231 | 3.2 | 14.5 | 0.00 | 0.00 | 0.00 | 42 | 1010.7 |
| 20260507171340 | 13 | 237 | 4.8 | 16.1 | 0.00 | 0.00 | 0.00 | 45 | 1010.7 |
| 20260507170838 | 12 | 320 | 6.4 | 14.5 | 0.00 | 0.00 | 0.00 | 45 | 1010.8 |
| 20260507170334 | 12 | 11 | 4.8 | 14.5 | 0.00 | 0.00 | 0.00 | 44 | 1011.1 |
| 20260507165830 | 12 | 252 | 4.8 | 19.3 | 0.00 | 0.00 | 0.00 | 44 | 1010.8 |
| 20260507165326 | 12 | 328 | 3.2 | 14.5 | 0.00 | 0.00 | 0.00 | 43 | 1010.9 |
| 20260507164822 | 12 | 232 | 12.9 | 17.7 | 0.00 | 0.00 | 0.00 | 48 | 1011.0 |
| 20260507164320 | 12 | 347 | 3.2 | 14.5 | 0.00 | 0.00 | 0.00 | 43 | 1011.1 |
| 20260507163817 | 12 | 247 | 12.9 | 20.9 | 0.00 | 0.00 | 0.00 | 45 | 1011.1 |
| 20260507163314 | 12 | 258 | 4.8 | 11.3 | 0.00 | 0.00 | 0.00 | 44 | 1011.1 |
| 20260507162810 | 12 | 261 | 9.7 | 17.7 | 0.00 | 0.00 | 0.00 | 47 | 1011.1 |
| 20260507162307 | 12 | 348 | 8.0 | 9.7 | 0.00 | 0.00 | 0.00 | 45 | 1011.0 |
| 20260507161803 | 12 | 246 | 9.7 | 9.7 | 0.00 | 0.00 | 0.00 | 46 | 1010.9 |
| 20260507161300 | 12 | 11 | 8.0 | 17.7 | 0.00 | 0.00 | 0.00 | 41 | 1010.9 |
| 20260507160756 | 12 | 268 | 6.4 | 9.7 | 0.00 | 0.00 | 0.00 | 41 | 1010.9 |
| 20260507160252 | 11 | 341 | 9.7 | 14.5 | 0.00 | 0.00 | 0.00 | 40 | 1010.9 |
| 20260507155748 | 12 | 346 | 11.3 | 12.9 | 0.00 | 0.00 | 0.00 | 42 | 1010.9 |
| 20260507155244 | 12 | 0 | 8.0 | 11.3 | 0.00 | 0.00 | 0.00 | 41 | 1011.0 |